GPS BIIF-3

Last updated on Fri Oct 31 2025 00:02:33 GMT+0000 (Coordinated Universal Time)

1 38833U 12053A 25302.97685471 .00000074 00000+0 00000+0 0 9994 2 38833 53.5493 153.0315 0174170 63.2489 298.6082 2.00564632 94822
UTC large
Height (km)
Speed (km/s)
/
Latitude / Longitude
Inclination (degrees)
Orbital Period (minutes)
Azimuth
Elevation
Range (km)
Doppler Factor

Next 0 passes for location: London (51.5072 / 0.1276)

Sorry there are no passes over London.